sat.trackr.live / text

‹ back to catalog

STARLINK-36091

NORAD 66848 · 2025-281A

PAYLOAD ACTIVE UNKNOWN

§ Identity

Operator
Country
US
Launch date
2025-12-02
Launch site
AFETR
Launch vehicle
Mass (kg)
RCS (m²)

Purposes: comms

External: N2YO · Heavens-Above · Gunter

§ Orbital elements

Epoch: 2026-05-25T01:46:41.932416Z

Period
94.27 min
Inclination
43.0049°
Eccentricity
0.0003981
Mean motion
15.27590100 rev/d
Perigee alt
480.3 km
Apogee alt
485.8 km
Semi-major
6,861.2 km
B*
4.9838e-4
RAAN
272.4382°
Arg perigee
267.9174°
Mean anomaly
92.1222°
Rev number
2,654

§ Raw data

STARLINK-360911 66848U 25281A   26145.07409644  .00013483  00000+0  49838-3 0  99952 66848  43.0049 272.4382 0003981 267.9174  92.1222 15.27590100 26544

JSON: /api/v1/satellites/66848 · /tle

For live sub-satellite position, see the globe view (requires WebGL).

§ Visibility from observer

Set your observer location to see the next 7 days of passes ≥ 10°. The values pass through the URL so the page stays shareable.

No JS? Fill the form by hand. The geolocation button needs JavaScript.